TimeEDT,TemperatureF,Dew PointF,Humidity,Sea Level PressureIn,VisibilityMPH,Wind Direction,Wind SpeedMPH,Gust SpeedMPH,PrecipitationIn,Events,Conditions,WindDirDegrees,DateUTC
12:37 AM,64.9,61.0,87,29.60,10.0,Variable,5.8,-,N/A,,Overcast,0,2012-10-16 04:37:00
12:52 AM,64.0,61.0,90,29.59,10.0,SSW,4.6,-,N/A,,Overcast,200,2012-10-16 04:52:00
12:59 AM,64.0,61.0,90,29.59,10.0,South,5.8,-,N/A,,Overcast,190,2012-10-16 04:59:00
1:27 AM,64.0,60.1,87,29.59,10.0,South,8.1,-,0.00,Rain,Light Rain,190,2012-10-16 05:27:00
1:52 AM,63.0,60.1,90,29.60,10.0,SSW,6.9,-,0.00,Rain,Light Rain,200,2012-10-16 05:52:00
1:59 AM,63.0,60.1,90,29.59,10.0,SSW,8.1,-,0.01,Rain,Light Rain,200,2012-10-16 05:59:00
2:20 AM,62.1,59.0,90,29.59,5.0,NW,6.9,-,0.03,Rain,Light Rain,320,2012-10-16 06:20:00
2:36 AM,61.0,57.0,87,29.59,10.0,WNW,3.5,-,0.03,,Overcast,300,2012-10-16 06:36:00
2:52 AM,60.1,57.9,93,29.59,10.0,West,3.5,-,0.03,,Overcast,280,2012-10-16 06:52:00
3:03 AM,60.1,57.0,90,29.58,10.0,Calm,Calm,-,N/A,,Overcast,0,2012-10-16 07:03:00
4:52 AM,55.9,52.0,87,29.57,7.0,WNW,6.9,-,0.04,Rain,Rain,300,2012-10-16 08:52:00
6:52 AM,53.1,46.9,80,29.60,10.0,WNW,4.6,-,N/A,,Overcast,290,2012-10-16 10:52:00
7:52 AM,53.1,43.0,69,29.63,10.0,WNW,5.8,-,N/A,,Overcast,290,2012-10-16 11:52:00
8:52 AM,53.1,39.9,61,29.65,10.0,West,10.4,20.7,N/A,,Partly Cloudy,280,2012-10-16 12:52:00
9:52 AM,54.0,35.1,49,29.66,10.0,West,13.8,24.2,N/A,,Clear,280,2012-10-16 13:52:00
10:52 AM,55.0,35.1,47,29.65,10.0,West,13.8,18.4,N/A,,Clear,280,2012-10-16 14:52:00
11:52 AM,55.0,35.1,47,29.66,10.0,NW,12.7,27.6,N/A,,Clear,310,2012-10-16 15:52:00
12:52 PM,55.0,34.0,45,29.65,10.0,West,13.8,25.3,N/A,,Scattered Clouds,280,2012-10-16 16:52:00
1:52 PM,57.0,35.1,44,29.66,10.0,WNW,13.8,19.6,N/A,,Clear,290,2012-10-16 17:52:00
2:52 PM,57.0,35.1,44,29.68,10.0,WNW,11.5,19.6,N/A,,Scattered Clouds,300,2012-10-16 18:52:00
3:52 PM,57.0,34.0,42,29.69,10.0,NW,11.5,18.4,N/A,,Clear,310,2012-10-16 19:52:00
4:52 PM,55.9,34.0,44,29.72,10.0,NW,8.1,-,N/A,,Clear,310,2012-10-16 20:52:00
5:52 PM,53.1,35.1,50,29.75,10.0,West,5.8,-,N/A,,Clear,280,2012-10-16 21:52:00
6:52 PM,43.0,37.9,82,29.78,10.0,WSW,3.5,-,N/A,,Clear,240,2012-10-16 22:52:00
7:52 PM,42.1,37.9,85,29.81,10.0,Calm,Calm,-,N/A,,Clear,0,2012-10-16 23:52:00
8:52 PM,39.0,36.0,89,29.83,10.0,Calm,Calm,-,N/A,,Clear,0,2012-10-17 00:52:00
9:52 PM,36.0,34.0,93,29.85,10.0,Calm,Calm,-,N/A,,Clear,0,2012-10-17 01:52:00
10:52 PM,36.0,34.0,93,29.87,7.0,Calm,Calm,-,N/A,,Clear,0,2012-10-17 02:52:00
11:52 PM,36.0,33.1,89,29.87,9.0,Calm,Calm,-,N/A,,Clear,0,2012-10-17 03:52:00